Oxford, NC

11:28 AM EST on December 08, 2016 (GMT -0500)
Henderson-Oxford

Weather History for KHNZ - April, 2013

Change the Weather History Date:

Wednesday, April 3, 2013

  Actual Average (KTDF) Record (KTDF)
Temperature  
Mean Temperature 44 °F -  
Max Temperature 56 °F 69 °F 88 °F (1963)
Min Temperature 32 °F 42 °F 22 °F (1992)
Degree Days  
Heating Degree Days 21    
Moisture  
Dew Point 19 °F    
Average Humidity 38    
Maximum Humidity 76    
Minimum Humidity 16    
Precipitation  
Precipitation 0.00 in - - ()
Sea Level Pressure  
Sea Level Pressure 30.24 in    
Wind  
Wind Speed 4 mph (NNW)    
Max Wind Speed 13 mph    
Max Gust Speed 20 mph    
Visibility 10 miles    
Events      
Averages and records for this station are not official NWS values.
T = Trace of Precipitation, MM = Missing Value Source: NWS Daily Summary

Daily Weather History Graph

Daily Weather History Graph

Search for Another Location

Airport or City:

Trip Planner

Search our weather history database for the weather conditions in past years. The results will help you decide how hot, cold, wet, or windy it might be!

Date:

Astronomy

Apr. 03, 2013 Rise Set
Actual Time 6:57 AM EDT 7:38 PM EDT
Civil Twilight 6:31 AM EDT 8:04 PM EDT
Nautical Twilight 6:00 AM EDT 8:34 PM EDT
Astronomical Twilight 5:28 AM EDT 9:06 PM EDT
Moon 2:25 AM EDT (4/3) 12:58 PM EDT (4/3)
Length of Visible Light 13h 33m
Length of Day
12h 41m
Last Quarter, 45% of the Moon is Illuminated
Apr 3
Last Quarter
Apr 10
New
Apr 18
First Quarter
Apr 25
Full
May 2
Last Quarter

Hourly Weather History & Observations

Time (EDT) Temp. Windchill Dew Point Humidity Pressure Visibility Wind Dir Wind Speed Gust Speed Precip Events Conditions
12:15 AM 40.1 °F 38.0 °F 25.9 °F 57% 30.16 in 10.0 mi North 3.5 mph - N/A   Clear
12:35 AM 39.0 °F 35.7 °F 26.8 °F 62% 30.15 in 10.0 mi North 4.6 mph - N/A   Clear
12:55 AM 40.5 °F 37.3 °F 21.7 °F 47% 30.17 in 10.0 mi North 4.6 mph - N/A   Clear
1:15 AM 41.0 °F 38.0 °F 20.7 °F 44% 30.17 in 10.0 mi North 4.6 mph - N/A   Mostly Cloudy
1:35 AM 41.9 °F 39.0 °F 19.2 °F 40% 30.18 in 10.0 mi North 4.6 mph - N/A   Overcast
1:55 AM 41.7 °F 39.8 °F 17.8 °F 38% 30.19 in 10.0 mi NNE 3.5 mph - N/A   Overcast
2:15 AM 41.2 °F 38.2 °F 18.5 °F 40% 30.19 in 10.0 mi North 4.6 mph - N/A   Overcast
2:35 AM 40.6 °F 37.5 °F 19.6 °F 43% 30.19 in 10.0 mi North 4.6 mph - N/A   Overcast
2:55 AM 40.5 °F 38.4 °F 20.5 °F 45% 30.20 in 10.0 mi North 3.5 mph - N/A   Overcast
3:15 AM 40.6 °F 38.6 °F 19.6 °F 43% 30.21 in 10.0 mi North 3.5 mph - N/A   Overcast
3:35 AM 39.6 °F - 21.4 °F 48% 30.21 in 10.0 mi Calm Calm - N/A   Overcast
3:55 AM 39.4 °F 37.2 °F 21.0 °F 48% 30.21 in 10.0 mi NNE 3.5 mph - N/A   Mostly Cloudy
4:15 AM 38.5 °F 36.1 °F 22.8 °F 53% 30.20 in 10.0 mi NNE 3.5 mph - N/A   Mostly Cloudy
4:35 AM 38.7 °F 35.2 °F 20.7 °F 48% 30.20 in 10.0 mi NNE 4.6 mph - N/A   Overcast
4:55 AM 38.5 °F 36.1 °F 19.8 °F 47% 30.20 in 10.0 mi NNE 3.5 mph - N/A   Mostly Cloudy
5:15 AM 36.9 °F - 21.4 °F 54% 30.21 in 10.0 mi Calm Calm - N/A   Scattered Clouds
5:35 AM 36.9 °F - 19.6 °F 50% 30.22 in 10.0 mi Calm Calm - N/A   Mostly Cloudy
5:55 AM 34.0 °F - 23.0 °F 64% 30.22 in 10.0 mi Calm Calm - N/A   Scattered Clouds
6:15 AM 33.6 °F 29.4 °F 26.2 °F 74% 30.23 in 10.0 mi North 4.6 mph - N/A   Scattered Clouds
6:35 AM 34.7 °F 30.6 °F 24.1 °F 65% 30.22 in 10.0 mi North 4.6 mph - N/A   Clear
6:55 AM 32.0 °F 28.7 °F 25.0 °F 75% 30.22 in 10.0 mi North 3.5 mph - N/A   Clear
7:15 AM 32.4 °F 27.9 °F 25.5 °F 76% 30.23 in 10.0 mi North 4.6 mph - N/A   Clear
7:55 AM 36.0 °F - 21.7 °F 56% 30.25 in 10.0 mi Calm Calm - N/A   Clear
8:15 AM 38.8 °F - 23.2 °F 53% 30.28 in 10.0 mi Calm Calm - N/A   Clear
8:35 AM 40.8 °F - 22.5 °F 48% 30.27 in 10.0 mi Calm Calm - N/A   Clear
8:55 AM 41.9 °F 39.0 °F 20.5 °F 42% 30.28 in 10.0 mi NE 4.6 mph - N/A   Clear
9:15 AM 43.2 °F 39.7 °F 18.7 °F 38% 30.29 in 10.0 mi ENE 5.8 mph - N/A   Clear
9:35 AM 44.2 °F 41.8 °F 18.1 °F 35% 30.29 in 10.0 mi ENE 4.6 mph - N/A   Clear
9:55 AM 46.4 °F 45.2 °F 16.9 °F 31% 30.29 in 10.0 mi ENE 3.5 mph - N/A   Clear
10:15 AM 47.5 °F - 15.1 °F 27% 30.29 in 10.0 mi ENE 6.9 mph - N/A   Clear
10:35 AM 47.5 °F - 13.5 °F 26% 30.29 in 10.0 mi NNE 8.1 mph - N/A   Clear
10:55 AM 47.8 °F - 13.8 °F 26% 30.29 in 10.0 mi NNW 6.9 mph - N/A   Clear
11:15 AM 48.9 °F - 14.7 °F 26% 30.29 in 10.0 mi North 8.1 mph - N/A   Clear
11:35 AM 48.9 °F - 13.5 °F 24% 30.28 in 10.0 mi North 4.6 mph - N/A   Clear
11:55 AM 50.0 °F - 14.2 °F 24% 30.27 in 10.0 mi West 6.9 mph - N/A   Clear
12:15 PM 50.4 °F - 13.1 °F 23% 30.27 in 10.0 mi North 8.1 mph - N/A   Clear
12:35 PM 51.1 °F - 14.2 °F 23% 30.25 in 10.0 mi NW 9.2 mph 16.1 mph N/A   Clear
12:55 PM 52.3 °F - 15.4 °F 23% 30.25 in 10.0 mi WNW 6.9 mph - N/A   Clear
1:15 PM 52.5 °F - 14.5 °F 22% 30.23 in 10.0 mi NE 12.7 mph 19.6 mph N/A   Clear
1:35 PM 52.9 °F - 14.7 °F 22% 30.24 in 10.0 mi West 6.9 mph - N/A   Clear
1:55 PM 53.6 °F - 16.2 °F 23% 30.24 in 10.0 mi South 3.5 mph - N/A   Clear
2:15 PM 54.9 °F - 15.4 °F 21% 30.23 in 10.0 mi North 9.2 mph - N/A   Clear
2:35 PM 54.0 °F - 13.6 °F 20% 30.22 in 10.0 mi Calm Calm - N/A   Clear
2:55 PM 55.0 °F - 13.8 °F 20% 30.21 in 10.0 mi WNW 3.5 mph - N/A   Clear
3:15 PM 55.4 °F - 12.4 °F 18% 30.21 in 10.0 mi WSW 9.2 mph 16.1 mph N/A   Clear
3:35 PM 55.2 °F - 11.5 °F 18% 30.21 in 10.0 mi West 3.5 mph - N/A   Clear
3:55 PM 56.7 °F - 14.0 °F 19% 30.21 in 10.0 mi WNW 6.9 mph - N/A   Clear
4:15 PM 56.7 °F - 14.0 °F 19% 30.21 in 10.0 mi NW 6.9 mph - N/A   Clear
4:35 PM 56.8 °F - 12.9 °F 18% 30.21 in 10.0 mi WNW 6.9 mph - N/A   Clear
4:55 PM 56.8 °F - 13.1 °F 18% 30.21 in 10.0 mi WSW 6.9 mph - N/A   Clear
5:15 PM 56.7 °F - 11.5 °F 17% 30.22 in 10.0 mi NW 8.1 mph - N/A   Clear
5:35 PM 55.9 °F - 11.3 °F 17% 30.22 in 10.0 mi NW 8.1 mph - N/A   Clear
5:55 PM 55.4 °F - 10.0 °F 16% 30.22 in 10.0 mi NNW 10.4 mph - N/A   Clear
6:15 PM 55.0 °F - 10.4 °F 17% 30.22 in 10.0 mi NW 6.9 mph - N/A   Clear
6:35 PM 54.5 °F - 11.1 °F 18% 30.23 in 10.0 mi NW 5.8 mph - N/A   Clear
6:55 PM 53.4 °F - 13.3 °F 20% 30.24 in 10.0 mi Calm Calm - N/A   Clear
7:15 PM 52.7 °F - 12.7 °F 20% 30.24 in 10.0 mi NW 3.5 mph - N/A   Clear
7:35 PM 51.1 °F - 16.9 °F 26% 30.24 in 10.0 mi Calm Calm - N/A   Clear
7:55 PM 50.4 °F - 15.1 °F 25% 30.23 in 10.0 mi Calm Calm - N/A   Clear
8:15 PM 48.6 °F - 15.8 °F 27% 30.24 in 10.0 mi Calm Calm - N/A   Clear
8:35 PM 46.8 °F - 29.7 °F 51% 30.24 in 10.0 mi Calm Calm - N/A   Clear
8:55 PM 47.1 °F - 19.0 °F 33% 30.26 in 10.0 mi Calm Calm - N/A   Clear
9:15 PM 47.5 °F - 21.6 °F 36% 30.27 in 10.0 mi Calm Calm - N/A   Clear
9:35 PM 45.5 °F - 25.3 °F 45% 30.27 in 10.0 mi Calm Calm - N/A   Clear
9:55 PM 44.8 °F - 23.9 °F 44% 30.27 in 10.0 mi Calm Calm - N/A   Clear
10:15 PM 43.2 °F - 29.5 °F 59% 30.29 in 10.0 mi Calm Calm - N/A   Clear
10:35 PM 42.1 °F - 26.6 °F 54% 30.30 in 10.0 mi Calm Calm - N/A   Clear
10:55 PM 41.9 °F - 31.5 °F 66% 30.30 in 10.0 mi Calm Calm - N/A   Clear
11:15 PM 42.4 °F - 27.3 °F 55% 30.30 in 10.0 mi Calm Calm - N/A   Clear
11:35 PM 41.7 °F - 28.8 °F 60% 30.30 in 10.0 mi Calm Calm - N/A   Clear
11:55 PM 42.3 °F - 28.9 °F 59% 30.30 in 10.0 mi Calm Calm - N/A   Clear